"Pseudo-MPEC" for ZTF089T

Created 2019 Oct 12 22:07:21 UT using Find_Orb

Click here for an explanation of pseudo-MPECs

 
 Astrometry: 
     ZTF089T  C2019 10 03.53227009 37 33.44 +00 40 40.9    ~A5Kq 19.70rUNEOCPI41
     ZTF089T  C2019 10 05.51919009 43 28.61 +00 28 32.8    ~A5Kq 19.41rUNEOCPI41
     ZTF089T  C2019 10 05.52410009 43 29.46 +00 28 31.1    ~A5Kq 19.30rUNEOCPI41
     ZTF089T  C2019 10 05.52900009 43 30.33 +00 28 29.3    ~A5Kq 19.53rUNEOCPI41
     ZTF089T IC2019 10 06YJ-`aN$ZIZBR65p#sg)i:r]m6R74!HmKV.f^Astrometry2-FC%xL01
     ZTF089T KC2019 10 063nn6g5s0*EmQ[FhoGk=L!Kmredacted;_7mF^j%\Ws+m:tAJXf/RL01
     ZTF089T KC2019 10 06q?Chkclickxhere9^]+,]ivb%T[d!u_vyqcfor='?[YjVYF.L^EWL01
     ZTF089T KC2019 10 06j(FAjO%jPT)'S!Dq\c,oSa%2-3_EexplanationXpj`=1*w`/gj=L01

Station data:
(I41) Palomar Mountain--ZTF  (N33.357340 W116.859780)  US/California. 1.2-m
   f/2.44 Oschin Schmidt + CCD.
(L01) Višnjan Observatory, Tičan  (N45.290900 E13.749300)  Croatia.
   Observers K. Korlević, E. Pettarin. Measurer E. Pettarin. 1.0-m f/2.9
   reflector + CCD.

Orbital elements:  ZTF089T
   Perihelion 2019 Oct 30.465674 +/- 2.35 TT = 11:10:34 (JD 2458786.965674)
Epoch 2019 Oct  6.0 TT = JDT 2458762.5   Earth MOID: 0.0113   Ve: 0.0906
M 341.86269083 +/- 3.0              (J2000 ecliptic)          AutoNEOCP
n   0.74133698 +/- 0.0588           Peri.  267.58779 +/- 2.3
a   1.20909085 +/- 0.0639           Node   153.75753 +/- 0.9
e   0.3384411 +/- 0.0411            Incl.    4.70522 +/- 0.42
P   1.33/485.60d           H 18.1   G  0.15   U 10.8  
q 0.79988475 +/- 0.00788    Q 1.61829696 +/- 0.143
From 8 observations 2019 Oct. 3-6; mean residual 0".22
Residuals in arcseconds: 
191003 I41  .00   .02-    191005 I41  .50+  .02+    191006 L01  .08+  .05-    
191005 I41  .37-  .01+    191006 L01  .04+  .38+    191006 L01  .19+  .30-    
191005 I41  .11-  .07+    191006 L01  .34-  .11-    

Ephemerides (geocentric):
Date (UTC) HH   RA              Dec         delta   r     elong  mag " sig PA
---- -- -- --  -------------   -----------  ------ ------ -----  --- ---- ---
2019 10 12 22  10 04 15.739   -00 13 47.59  .29859 .82330  46.9 19.7 3.47   2
2019 10 12 23  10 04 22.592   -00 14 01.99  .29891 .82319  46.9 19.7 3.50   1
2019 10 13 00  10 04 29.444   -00 14 16.39  .29922 .82308  46.9 19.7 3.52   1
2019 10 13 01  10 04 36.295   -00 14 30.80  .29954 .82298  46.9 19.7 3.54   0
2019 10 13 02  10 04 43.145   -00 14 45.21  .29985 .82287  46.9 19.7 3.56 179
2019 10 13 03  10 04 49.994   -00 14 59.63  .30017 .82276  46.9 19.7 3.58 179
2019 10 13 04  10 04 56.842   -00 15 14.05  .30048 .82265  47.0 19.7 3.61 178
2019 10 13 05  10 05 03.690   -00 15 28.48  .30080 .82255  47.0 19.7 3.63 177
2019 10 13 06  10 05 10.536   -00 15 42.91  .30111 .82244  47.0 19.7 3.66 177
2019 10 13 07  10 05 17.381   -00 15 57.35  .30143 .82234  47.0 19.7 3.69 176
2019 10 13 08  10 05 24.226   -00 16 11.79  .30175 .82223  47.0 19.7 3.71 175
2019 10 13 09  10 05 31.069   -00 16 26.24  .30206 .82212  47.0 19.7 3.74 175
2019 10 13 10  10 05 37.912   -00 16 40.69  .30238 .82202  47.0 19.7 3.77 174
2019 10 13 11  10 05 44.753   -00 16 55.15  .30269 .82191  47.0 19.7 3.80 173
2019 10 13 12  10 05 51.594   -00 17 09.62  .30301 .82181  47.0 19.7 3.83 173
2019 10 13 13  10 05 58.434   -00 17 24.09  .30332 .82170  47.1 19.7 3.86 172
2019 10 13 14  10 06 05.273   -00 17 38.56  .30364 .82160  47.1 19.7 3.89 171
2019 10 13 15  10 06 12.111   -00 17 53.05  .30396 .82149  47.1 19.7 3.92 171
2019 10 13 16  10 06 18.949   -00 18 07.53  .30427 .82139  47.1 19.7 3.95 170
2019 10 13 17  10 06 25.786   -00 18 22.03  .30459 .82129  47.1 19.7 3.99 169
2019 10 13 18  10 06 32.621   -00 18 36.53  .30491 .82118  47.1 19.7 4.02 169
2019 10 13 19  10 06 39.456   -00 18 51.03  .30522 .82108  47.1 19.7 4.06 168
2019 10 13 20  10 06 46.291   -00 19 05.55  .30554 .82098  47.1 19.7 4.10 167
2019 10 13 21  10 06 53.124   -00 19 20.07  .30586 .82087  47.1 19.7 4.13 167
2019 10 13 22  10 06 59.957   -00 19 34.59  .30617 .82077  47.2 19.7 4.17 166
2019 10 13 23  10 07 06.789   -00 19 49.12  .30649 .82067  47.2 19.7 4.21 165
2019 10 14 00  10 07 13.620   -00 20 03.66  .30681 .82057  47.2 19.7 4.25 165
2019 10 14 01  10 07 20.451   -00 20 18.20  .30712 .82047  47.2 19.7 4.29 164
2019 10 14 02  10 07 27.281   -00 20 32.75  .30744 .82036  47.2 19.7 4.34 163
2019 10 14 03  10 07 34.110   -00 20 47.31  .30776 .82026  47.2 19.7 4.38 163
2019 10 14 04  10 07 40.939   -00 21 01.87  .30807 .82016  47.2 19.7 4.42 162
2019 10 14 05  10 07 47.767   -00 21 16.44  .30839 .82006  47.2 19.7 4.47 161
2019 10 14 06  10 07 54.594   -00 21 31.02  .30871 .81996  47.2 19.7 4.51 161
2019 10 14 07  10 08 01.420   -00 21 45.60  .30903 .81986  47.3 19.7 4.56 160
2019 10 14 08  10 08 08.246   -00 22 00.20  .30934 .81976  47.3 19.7 4.61 160
2019 10 14 09  10 08 15.072   -00 22 14.79  .30966 .81966  47.3 19.7 4.66 159
2019 10 14 10  10 08 21.896   -00 22 29.40  .30998 .81956  47.3 19.7 4.71 158
2019 10 14 11  10 08 28.720   -00 22 44.01  .31030 .81946  47.3 19.7 4.76 158
2019 10 14 12  10 08 35.544   -00 22 58.63  .31061 .81936  47.3 19.7 4.81 157
2019 10 14 13  10 08 42.367   -00 23 13.26  .31093 .81926  47.3 19.7 4.87 156
2019 10 14 14  10 08 49.189   -00 23 27.89  .31125 .81916  47.3 19.7 4.92 156
2019 10 14 15  10 08 56.011   -00 23 42.53  .31157 .81906  47.3 19.7 4.97 155
2019 10 14 16  10 09 02.832   -00 23 57.18  .31189 .81896  47.4 19.7 5.03 155
2019 10 14 17  10 09 09.653   -00 24 11.83  .31220 .81887  47.4 19.7 5.09 154
2019 10 14 18  10 09 16.473   -00 24 26.50  .31252 .81877  47.4 19.7 5.15 154
2019 10 14 19  10 09 23.293   -00 24 41.17  .31284 .81867  47.4 19.7 5.21 153
2019 10 14 20  10 09 30.112   -00 24 55.85  .31316 .81857  47.4 19.7 5.27 152
2019 10 14 21  10 09 36.931   -00 25 10.53  .31348 .81848  47.4 19.7 5.33 152